Rawlins, WY

2:08 PM MST on February 24, 2018 (GMT -0700)
Rawlins Municipal

Weather History for KRWL - March, 2014

Change the Weather History Date:

Sunday, March 30, 2014

  Actual Average Record
Temperature  
Mean Temperature 43 °F 36 °F  
Max Temperature 56 °F 48 °F 68 °F (1986)
Min Temperature 29 °F 24 °F -11 °F (1985)
Degree Days  
Heating Degree Days 22 29  
Month to date heating degree days 908 986  
Since 1 July heating degree days 6672 6943  
Cooling Degree Days 0 0  
Month to date cooling degree days 0 0  
Year to date cooling degree days 0 0  
Moisture  
Dew Point 25 °F    
Average Humidity 58    
Maximum Humidity 92    
Minimum Humidity 24    
Precipitation  
Precipitation 0.10 in 0.03 in 0.62 in (2008)
Month to date precipitation 0.49 0.65  
Year to date precipitation 0.95 1.43  
Sea Level Pressure  
Sea Level Pressure 29.57 in    
Wind  
Wind Speed 23 mph (SW)    
Max Wind Speed 40 mph    
Max Gust Speed 54 mph    
Visibility 6 miles    
Events Fog , Rain , Snow    
T = Trace of Precipitation, MM = Missing Value Source: NWS Daily Summary

Daily Weather History Graph

Daily Weather History Graph

Search for Another Location

Airport or City:

Trip Planner

Search our weather history database for the weather conditions in past years. The results will help you decide how hot, cold, wet, or windy it might be!

Date:

Astronomy

Mar. 30, 2014 Rise Set
Actual Time 6:54 AM MDT 7:32 PM MDT
Civil Twilight 6:26 AM MDT 8:00 PM MDT
Nautical Twilight 5:53 AM MDT 8:33 PM MDT
Astronomical Twilight 5:19 AM MDT 9:07 PM MDT
Moon 6:42 AM MDT (3/30) 7:48 PM MDT (3/30)
Length of Visible Light 13h 33m
Length of Day
12h 37m
Waning Crescent, 0% of the Moon is Illuminated
Mar 30
Waning Crescent
Mar 30
New
Apr 7
First Quarter
Apr 15
Full
Apr 22
Last Quarter

Hourly Weather History & Observations

Time (MDT) Temp. Windchill Dew Point Humidity Pressure Visibility Wind Dir Wind Speed Gust Speed Precip Events Conditions
12:53 AM 41.0 °F 35.2 °F 16.0 °F 36% 29.75 in 10.0 mi SSW 9.2 mph - N/A   Clear
1:53 AM 44.1 °F 35.9 °F 17.1 °F 34% 29.69 in 10.0 mi SSW 19.6 mph 26.5 mph N/A   Clear
2:53 AM 45.0 °F 36.4 °F 16.0 °F 31% 29.67 in 10.0 mi SSW 23.0 mph 31.1 mph N/A   Clear
3:53 AM 42.1 °F 35.2 °F 17.1 °F 37% 29.67 in 10.0 mi SSW 12.7 mph - N/A   Clear
4:53 AM 45.0 °F 37.4 °F 16.0 °F 31% 29.64 in 10.0 mi SSW 18.4 mph 24.2 mph N/A   Clear
5:53 AM 45.0 °F 36.9 °F 16.0 °F 31% 29.64 in 10.0 mi SSW 20.7 mph 27.6 mph N/A   Scattered Clouds
6:53 AM 46.0 °F 38.5 °F 15.1 °F 29% 29.62 in 10.0 mi SSW 19.6 mph 29.9 mph N/A   Scattered Clouds
7:53 AM 46.9 °F - 15.1 °F 28% 29.59 in 10.0 mi SSW 18.4 mph 27.6 mph N/A   Partly Cloudy
8:53 AM 48.9 °F - 15.1 °F 26% 29.61 in 10.0 mi SSW 21.9 mph 31.1 mph N/A   Clear
9:53 AM 52.0 °F - 15.1 °F 23% 29.58 in 10.0 mi SW 26.5 mph 39.1 mph N/A   Clear
10:53 AM 51.1 °F - 15.1 °F 24% 29.58 in 10.0 mi SSW 33.4 mph 43.7 mph N/A   Clear
11:53 AM 52.0 °F - 16.0 °F 24% 29.55 in 10.0 mi SSW 26.5 mph 38.0 mph N/A   Clear
12:53 PM 54.0 °F - 17.1 °F 23% 29.49 in 10.0 mi SSW 36.8 mph 51.8 mph N/A   Clear
1:53 PM 53.1 °F - 19.9 °F 27% 29.45 in 10.0 mi SSW 36.8 mph 46.0 mph N/A   Partly Cloudy
2:53 PM 51.1 °F - 19.9 °F 29% 29.43 in 10.0 mi SSW 27.6 mph 54.1 mph N/A   Mostly Cloudy
3:53 PM 50.0 °F - 23.0 °F 35% 29.43 in 10.0 mi SSW 34.5 mph 43.7 mph N/A   Overcast
4:53 PM 53.1 °F - 24.1 °F 32% 29.38 in 10.0 mi SSW 28.8 mph 36.8 mph N/A   Scattered Clouds
5:53 PM 48.9 °F - 21.9 °F 35% 29.40 in 10.0 mi SSW 12.7 mph - N/A   Mostly Cloudy
6:53 PM 43.0 °F 34.0 °F 28.9 °F 58% 29.44 in 10.0 mi SW 21.9 mph 32.2 mph N/A   Overcast
7:00 PM 41.0 °F 31.4 °F 32.0 °F 70% 29.57 in 9.0 mi SW 21.9 mph 31.1 mph 0.00 in Rain Light Rain
7:12 PM 39.2 °F 30.5 °F 33.8 °F 81% 29.56 in 10.0 mi SW 16.1 mph - 0.00 in Rain Light Rain
7:53 PM 37.0 °F 26.7 °F 33.1 °F 86% 29.47 in 8.0 mi SW 19.6 mph - 0.01 in Rain Light Rain
8:00 PM 35.6 °F 27.1 °F 33.8 °F 93% 29.57 in 6.0 mi SW 12.7 mph 23.0 mph 0.00 in Rain Light Rain
8:13 PM 33.8 °F 24.8 °F 32.0 °F 93% 29.58 in 4.0 mi WSW 12.7 mph 21.9 mph 0.02 in Snow Light Snow
8:33 PM 33.8 °F 24.3 °F 30.2 °F 87% 29.60 in 2.0 mi WSW 13.8 mph - 0.02 in Snow Light Snow
8:42 PM 33.8 °F 23.9 °F 30.2 °F 87% 29.60 in 1.5 mi WSW 15.0 mph - 0.03 in Snow Light Snow
8:51 PM 33.8 °F 23.9 °F 30.2 °F 87% 29.60 in 3.0 mi WSW 15.0 mph - 0.03 in Snow Light Snow
8:53 PM 33.1 °F 23.4 °F 30.9 °F 92% 29.50 in 4.0 mi WSW 13.8 mph - 0.03 in Snow Light Snow
9:04 PM 33.8 °F 26.4 °F 30.2 °F 87% 29.59 in 1.8 mi WSW 9.2 mph - 0.00 in Snow Light Snow
9:10 PM 33.8 °F 25.8 °F 30.2 °F 87% 29.60 in 2.0 mi WSW 10.4 mph - 0.00 in Snow Light Snow
9:15 PM 33.8 °F 24.3 °F 30.2 °F 87% 29.60 in 3.0 mi WSW 13.8 mph - 0.00 in Snow Light Snow
9:47 PM 33.8 °F 24.8 °F 30.2 °F 87% 29.62 in 2.5 mi WSW 12.7 mph - 0.00 in Snow Light Snow
9:53 PM 33.1 °F 23.9 °F 30.9 °F 92% 29.50 in 2.5 mi WSW 12.7 mph - 0.00 in Snow Light Snow
10:01 PM 33.8 °F 24.8 °F 30.2 °F 87% 29.61 in 1.5 mi SW 12.7 mph - 0.01 in Snow Light Snow
10:27 PM 32.0 °F 19.8 °F 30.2 °F 93% 29.62 in 1.0 mi WSW 20.7 mph 27.6 mph 0.02 in Snow Light Snow
10:38 PM 30.2 °F 17.4 °F 28.4 °F 93% 29.62 in 0.8 mi WSW 20.7 mph 29.9 mph 0.03 in Snow Light Snow
10:53 PM 30.9 °F 17.8 °F 28.9 °F 92% 29.53 in 0.5 mi WSW 23.0 mph 29.9 mph 0.04 in Fog , Snow Snow
11:14 PM 30.2 °F 17.8 °F 28.4 °F 93% 29.60 in 1.0 mi WSW 19.6 mph 28.8 mph 0.01 in Snow Light Snow
11:28 PM 30.2 °F 18.5 °F 28.4 °F 93% 29.60 in 2.0 mi West 17.3 mph 26.5 mph 0.01 in Snow Light Snow
11:36 PM 30.2 °F 17.8 °F 28.4 °F 93% 29.60 in 5.0 mi West 19.6 mph 26.5 mph 0.01 in Snow Light Snow
11:43 PM 30.2 °F 16.5 °F 28.4 °F 93% 29.62 in 1.5 mi WNW 24.2 mph 31.1 mph 0.01 in Snow Light Snow
11:53 PM 30.0 °F 16.0 °F 28.0 °F 92% 29.54 in 0.5 mi West 25.3 mph 31.1 mph 0.01 in Fog , Snow Snow